Location: Unspecified
(0.0000°N, 0.0000°E)
Time: 03:41:25
(UTC+00:00)

CZ-3C DEB - Pass Details

Date: 23 February 2026
Orbit: 408 x 32633 km, 21.5° (Epoch: 28 September)

Event Time Altitude Azimuth Distance (km) Brightness Sun altitude
Exits shadow 05:27:33 - 293° (WNW) 15,433 ? -11.3°
Reaches altitude 10° 05:30:28 10° 294° (WNW) 15,867 ? -10.6°
Maximum altitude 07:23:10 34° 298° (WNW) 29,882 ? 17.2°
Drops below altitude 10° 13:49:31 10° 150° (SSE) 3,297 ? 64.2°
Sets 13:51:29 0° 137° (SE) 3,678 ? 63.7°
